Location: Luxembourg
(49.6117°N, 6.1300°E)
Time: 00:37:48
(UTC+01:00)

ISS - Visible Passes

Search period start: 01 December 2023 00:00
Search period end: 11 December 2023 00:00
Orbit: 416 x 417 km, 51.6° (Epoch: 30 November)

Date Brightness Start Highest point End Pass type
(mag) Time Alt. Az. Time Alt. Az. Time Alt. Az.
01 Dec -3.6 18:16:30 10° WNW 18:19:51 72° SSW 18:21:30 27° ESE visible
01 Dec -0.4 19:53:53 10° W 19:54:25 12° WSW 19:54:25 12° WSW visible
02 Dec -3.8 17:28:02 10° WNW 17:31:25 87° NNE 17:34:47 10° ESE visible
02 Dec -1.9 19:05:03 10° W 19:07:53 25° SW 19:08:21 24° SSW visible
03 Dec -2.4 18:16:24 10° W 18:19:31 37° SSW 18:22:26 11° SE visible
04 Dec -3.0 17:27:46 10° WNW 17:31:03 54° SSW 17:34:20 10° SE visible
04 Dec -0.7 19:05:51 10° WSW 19:07:12 12° SW 19:08:34 10° SSW visible
05 Dec -0.9 18:16:26 10° W 18:18:49 18° SW 18:21:12 10° S visible
06 Dec -1.4 17:27:27 10° W 17:30:21 27° SW 17:33:14 10° SSE visible
08 Dec -0.4 17:27:40 10° WSW 17:29:17 13° SW 17:30:52 10° SSW visible
